Weather observations for the past three days for
Aniak, Aniak Airport
Imperial (Metric)
Date Time (akdt) Wind (mph) Vis. (mi.) Weather Sky Cond. Temperature (ºF) Relative Humidity Wind Chill (°F) Heat Index (°F) Pressure Precipitation (in)
Air Dwpt 6 hour altimeter (in) sea level (mb) 1 hr 3 hr 6 hr
Max. Min.
13 11:56 N 5 10.00 Partly Cloudy SCT027 55 43 64% 30.3 1025.4
13 10:56 W 3 0.00 Mostly Cloudy BKN023 52 42.1 69% 30.3 1025.4
13 09:56 NW 3 10.00 Overcast BKN021 OVC048 51.1 42.1 52 46 71% 30.3 1025.4 0.02 0.02
13 08:56 SW 6 10.00 Partly Cloudy SCT019 51.1 42.1 71% 30.3 1025.2
13 07:56 SW 3 10.00 A Few Clouds FEW022 48.9 43 80% 30.3 1025.1
13 06:56 Calm 10.00 Overcast OVC022 46.9 43 86% 30.29 1024.9
13 05:56 Calm 10.00 Overcast OVC022 46 42.1 86% 30.28 1024.6
13 03:56 Calm 10.00 Overcast OVC022 46.9 42.1 55 46 83% 30.27 1024.1
13 02:56 W 3 10.00 Overcast OVC020 46.9 42.1 83% 30.26 1023.9
13 01:56 SW 3 10.00 Overcast BKN048 OVC100 46.9 42.1 83% 30.25 1023.5
12 23:56 W 6 10.00 Overcast BKN039 OVC048 51.1 43 74% 30.21 1022.4
12 21:56 W 9 10.00 Overcast OVC036 55 43 57 54 64% 30.18 1021.1
12 20:56 W 9 10.00 Overcast OVC038 55.9 43 62% 30.16 1020.7
12 19:56 W 10 10.00 Overcast FEW038 OVC095 55.9 43 62% 30.15 1020.1
12 18:56 W 9 10.00 Mostly Cloudy SCT028 BKN036 55.9 43 62% 30.14 1019.9
12 17:56 W 13 10.00 Mostly Cloudy SCT026 BKN037 55.9 43 62% 30.13 1019.4
12 16:56 SW 13 G 21 10.00 Mostly Cloudy BKN024 55.9 44.1 65% 30.12 1019.1
12 15:56 W 12 G 20 10.00 Overcast OVC022 55 43 55.9 48.9 64% 30.12 1019.2
12 14:56 W 13 10.00 Partly Cloudy SCT022 54 43 67% 30.1 1018.6
12 13:56 Vrbl 7 10.00 Overcast OVC020 54 44.1 69% 30.09 1018.3
12 11:56 SW 10 10.00 Overcast OVC012 50 44.1 80% 46 30.07 1017.4
12 09:56 SW 8 10.00 Overcast OVC016 50 43 52 48.9 77% 47 30.03 1016.3
12 08:56 W 7 10.00 Overcast BKN014 BKN018 OVC110 48.9 44.1 83% 46 30.01 1015.6
12 07:56 W 9 10.00 Overcast OVC010 48.9 45 86% 45 29.99 1014.7
12 04:56 SW 6 10.00 Mostly Cloudy BKN023 50 46.9 89% 48 29.92 1012.5
12 02:56 SW 7 10.00 Overcast OVC100 53.1 46 77% 29.88 1011.1
12 01:56 W 5 10.00 Overcast OVC095 55 46.9 74% 29.86 1010.4
12 00:56 W 8 10.00 Mostly Cloudy BKN090 57 46.9 69% 29.85 1010.2
11 23:56 W 7 10.00 Overcast OVC100 60.1 46.9 62% 29.83 1009.5
11 22:56 W 3 10.00 Overcast OVC100 62.1 46.9 58% 29.82 1009.1
11 20:56 W 6 10.00 Mostly Cloudy BKN090 64.9 45 49% 29.79 1008.2
11 19:56 W 7 10.00 Overcast OVC095 64 43 46% 29.79 1008.2
11 18:56 W 8 10.00 Overcast OVC100 64.9 39.9 40% 29.79 1008.0
11 17:56 W 10 10.00 Overcast OVC110 66 39 37% 29.79 1007.9
11 16:56 W 8 10.00 A Few Clouds FEW120 66 36 33% 29.79 1008.0
11 12:56 W 12 10.00 Fair CLR 64 46 52% 29.8 1008.2
11 09:56 Calm 10.00 Fair CLR 57 46.9 57 45 69% 29.8 1008.4
11 07:56 Calm 10.00 Mostly Cloudy BKN120 54 44.1 69% 29.79 1008.1
11 06:56 Calm 10.00 Overcast OVC120 48.9 46 90% 29.78 1007.8
11 04:56 Calm 10.00 Mostly Cloudy SCT090 BKN110 46.9 44.1 90% 29.78 1007.6
11 03:56 Calm 10.00 A Few Clouds FEW120 48.9 45 64 48.9 86% 29.77 1007.4
11 02:56 W 3 10.00 Fair CLR 52 46 80% 29.76 1007.0
11 00:56 W 6 10.00 Partly Cloudy SCT080 SCT095 55 46 72% 29.74 1006.3
10 23:56 Calm 7.00 Fair CLR 55 46.9 74% 29.72 1005.5
10 22:56 Calm 10.00 A Few Clouds FEW085 59 46.9 64% 29.7 1005.1
10 19:56 Calm 10.00 A Few Clouds FEW090 70 36 29% 29.67 1004.0
10 17:56 S 5 G 16 10.00 Overcast OVC100 70 37 30% 29.67 1003.8
10 16:56 NW 6 10.00 Partly Cloudy FEW070 SCT090 69.1 39 33% 29.67 1004.1
10 15:56 Calm 10.00 A Few Clouds FEW070 70 37.9 70 55.9 31% 29.69 1004.5
10 12:56 Calm 8.00 Partly Cloudy SCT110 59 46 62% 29.71 1005.2
Date Time (akdt) Wind (mph) Vis. (mi.) Weather Sky Cond. Air Dwpt Max. Min. Relative Humidity Wind Chill (°F) Heat Index (°F) altimeter (in) sea level (mb) 1 hr 3 hr 6 hr
6 hour
Temperature (ºF) Pressure Precipitation (in)